,,Stat6,,Stat2,,Stat8,,Stat9,,Stat10,,Wind1,,Wind1,
time,status,PA1M_AVG,status,PR1M_SUM,status,RH1M_AVG,status,SR1M_AVG,status,TA1M_AVG,status,W1dAve1m,status,W1sAve1m,
2009-03-13, 00:00:00,VALID,918.95,VALID,0,VALID,100,VALID,0,VALID,20.4467,VALID,307,VALID,0,
2009-03-13, 00:01:00,VALID,918.957,VALID,0,VALID,100,VALID,-0.0169808,VALID,20.4464,VALID,307,VALID,0,
2009-03-13, 00:02:00,VALID,918.948,VALID,0,VALID,100,VALID,-0.0169808,VALID,20.4597,VALID,343,VALID,0,
2009-03-13, 00:03:00,VALID,918.937,VALID,0.2,VALID,100,VALID,0,VALID,20.4889,VALID,42,VALID,0,
2009-03-13, 00:04:00,VALID,918.922,VALID,0,VALID,100,VALID,0,VALID,20.4891,VALID,35,VALID,0,
2009-03-13, 00:05:00,VALID,918.924,VALID,0,VALID,100,VALID,0,VALID,20.4499,VALID,22,VALID,0,
2009-03-13, 00:06:00,VALID,918.913,VALID,0,VALID,100,VALID,0.0169808,VALID,20.4102,VALID,25,VALID,0,
2009-03-13, 00:07:00,VALID,918.895,VALID,0,VALID,100,VALID,-0.0169808,VALID,20.3807,VALID,21,VALID,0,
2009-03-13, 00:08:00,VALID,918.888,VALID,0,VALID,100,VALID,-0.0679233,VALID,20.3788,VALID,40,VALID,0,
2009-03-13, 00:09:00,VALID,918.861,VALID,0,VALID,100,VALID,-0.101885,VALID,20.3995,VALID,62,VALID,0,
2009-03-13, 00:10:00,VALID,918.843,VALID,0.2,VALID,100,VALID,-0.101885,VALID,20.389,VALID,73,VALID,0,
2009-03-13, 00:11:00,VALID,918.837,VALID,0,VALID,100,VALID,-0.0679233,VALID,20.3763,VALID,211,VALID,0.0370164,
2009-03-13, 00:12:00,VALID,918.807,VALID,0,VALID,100,VALID,-0.118866,VALID,20.3606,VALID,183,VALID,0,
2009-03-13, 00:13:00,VALID,918.809,VALID,0,VALID,100,VALID,-0.101885,VALID,20.3349,VALID,228,VALID,0,
2009-03-13, 00:14:00,VALID,918.788,VALID,0,VALID,100,VALID,-0.135847,VALID,20.3046,VALID,244,VALID,0,
2009-03-13, 00:15:00,VALID,918.786,VALID,0,VALID,100,VALID,-0.0849042,VALID,20.3014,VALID,246,VALID,0,
2009-03-13, 00:16:00,VALID,918.77,VALID,0.2,VALID,100,VALID,-0.101885,VALID,20.3149,VALID,246,VALID,0,
2009-03-13, 00:17:00,VALID,918.766,VALID,0,VALID,100,VALID,-0.101885,VALID,20.3436,VALID,246,VALID,0,
2009-03-13, 00:18:00,VALID,918.762,VALID,0,VALID,100,VALID,-0.101885,VALID,20.3503,VALID,41,VALID,0,
2009-03-13, 00:19:00,VALID,918.739,VALID,0,VALID,100,VALID,-0.101885,VALID,20.3563,VALID,55,VALID,0,
2009-03-13, 00:20:00,VALID,918.715,VALID,0.2,VALID,100,VALID,-0.101885,VALID,20.3122,VALID,83,VALID,0,
2009-03-13, 00:21:00,VALID,918.686,VALID,0,VALID,100,VALID,-0.101885,VALID,20.3281,VALID,65,VALID,0.0699491,
2009-03-13, 00:22:00,VALID,918.667,VALID,0,VALID,100,VALID,-0.118866,VALID,20.3381,VALID,20,VALID,0,
2009-03-13, 00:23:00,VALID,918.617,VALID,0,VALID,100,VALID,-0.0509425,VALID,20.3593,VALID,26,VALID,0.0472384,
2009-03-13, 00:24:00,VALID,918.584,VALID,0,VALID,100,VALID,0.0169808,VALID,20.3485,VALID,347,VALID,0.0608259,
2009-03-13, 00:25:00,VALID,918.554,VALID,0,VALID,100,VALID,0,VALID,20.3163,VALID,248,VALID,0.018821,
2009-03-13, 00:26:00,VALID,918.539,VALID,0,VALID,100,VALID,0.0169808,VALID,20.2877,VALID,236,VALID,0,
2009-03-13, 00:27:00,VALID,918.512,VALID,0.2,VALID,100,VALID,0.0169808,VALID,20.2544,VALID,179,VALID,0.000726744,
2009-03-13, 00:28:00,VALID,918.483,VALID,0,VALID,100,VALID,0.0169808,VALID,20.2674,VALID,178,VALID,0.000181686,
2009-03-13, 00:29:00,VALID,918.462,VALID,0,VALID,100,VALID,0,VALID,20.2707,VALID,178,VALID,0,
2009-03-13, 00:30:00,VALID,918.448,VALID,0,VALID,100,VALID,0,VALID,20.2677,VALID,196,VALID,0.00130208,
2009-03-13, 00:31:00,VALID,918.423,VALID,0,VALID,100,VALID,0,VALID,20.2544,VALID,217,VALID,0,
2009-03-13, 00:32:00,VALID,918.399,VALID,0,VALID,100,VALID,0,VALID,20.2255,VALID,218,VALID,0,
2009-03-13, 00:33:00,VALID,918.385,VALID,0,VALID,100,VALID,0,VALID,20.2217,VALID,218,VALID,0,
2009-03-13, 00:34:00,VALID,918.362,VALID,0,VALID,100,VALID,0,VALID,20.2444,VALID,217,VALID,0,
2009-03-13, 00:35:00,VALID,918.344,VALID,0,VALID,100,VALID,0.0169808,VALID,20.2344,VALID,149,VALID,0,
2009-03-13, 00:36:00,VALID,918.324,VALID,0,VALID,100,VALID,0,VALID,20.183,VALID,116,VALID,0,
2009-03-13, 00:37:00,VALID,918.3,VALID,0,VALID,100,VALID,0,VALID,20.1571,VALID,104,VALID,0,
2009-03-13, 00:38:00,VALID,918.301,VALID,0,VALID,100,VALID,-0.0169808,VALID,20.1703,VALID,103,VALID,0,
2009-03-13, 00:39:00,VALID,918.302,VALID,0,VALID,100,VALID,0.0169808,VALID,20.196,VALID,103,VALID,0,
2009-03-13, 00:40:00,VALID,918.313,VALID,0,VALID,100,VALID,0.0509425,VALID,20.2347,VALID,103,VALID,0,
2009-03-13, 00:41:00,VALID,918.309,VALID,0,VALID,100,VALID,0.0679233,VALID,20.2669,VALID,103,VALID,0,
2009-03-13, 00:42:00,VALID,918.307,VALID,0,VALID,100,VALID,0,VALID,20.2966,VALID,103,VALID,0,
2009-03-13, 00:43:00,VALID,918.31,VALID,0,VALID,100,VALID,0.0169808,VALID,20.2996,VALID,93,VALID,0,
2009-03-13, 00:44:00,VALID,918.282,VALID,0,VALID,100,VALID,0,VALID,20.2509,VALID,53,VALID,0,
2009-03-13, 00:45:00,VALID,918.296,VALID,0,VALID,100,VALID,0.0169808,VALID,20.2185,VALID,27,VALID,0.00114329,
2009-03-13, 00:46:00,VALID,918.263,VALID,0,VALID,100,VALID,0,VALID,20.2347,VALID,30,VALID,0,
2009-03-13, 00:47:00,VALID,918.245,VALID,0,VALID,100,VALID,-0.0509425,VALID,20.2252,VALID,12,VALID,0,
2009-03-13, 00:48:00,VALID,918.216,VALID,0,VALID,100,VALID,-0.0339617,VALID,20.2063,VALID,343,VALID,0.107515,
2009-03-13, 00:49:00,VALID,918.179,VALID,0,VALID,100,VALID,0,VALID,20.1771,VALID,46,VALID,0.168826,
2009-03-13, 00:50:00,VALID,918.171,VALID,0,VALID,100,VALID,-0.0339617,VALID,20.1833,VALID,32,VALID,0.0390625,
2009-03-13, 00:51:00,VALID,918.14,VALID,0,VALID,100,VALID,0,VALID,20.2025,VALID,24,VALID,0.130451,
2009-03-13, 00:52:00,VALID,918.118,VALID,0,VALID,100,VALID,0,VALID,20.1835,VALID,27,VALID,0,
2009-03-13, 00:53:00,VALID,918.125,VALID,0,VALID,100,VALID,-0.0339617,VALID,20.1811,VALID,27,VALID,0.00099734,
2009-03-13, 00:54:00,VALID,918.113,VALID,0,VALID,100,VALID,-0.0169808,VALID,20.1905,VALID,39,VALID,0.146949,
2009-03-13, 00:55:00,VALID,918.116,VALID,0,VALID,100,VALID,-0.0509425,VALID,20.1781,VALID,27,VALID,0.219336,
2009-03-13, 00:56:00,VALID,918.117,VALID,0,VALID,100,VALID,-0.0339617,VALID,20.1743,VALID,25,VALID,0.226926,
2009-03-13, 00:57:00,VALID,918.114,VALID,0,VALID,100,VALID,-0.0679233,VALID,20.1519,VALID,12,VALID,0.00483631,
2009-03-13, 00:58:00,VALID,918.096,VALID,0,VALID,100,VALID,-0.0509425,VALID,20.1394,VALID,21,VALID,0.031808,
2009-03-13, 00:59:00,VALID,918.093,VALID,0,VALID,100,VALID,-0.0849042,VALID,20.1129,VALID,17,VALID,0.230208,
2009-03-13, 01:00:00,VALID,918.084,VALID,0,VALID,100,VALID,-0.0339617,VALID,20.0999,VALID,23,VALID,0.00835756,
2009-03-13, 01:01:00,VALID,918.051,VALID,0,VALID,100,VALID,-0.0509425,VALID,20.0999,VALID,18,VALID,0.0706845,
2009-03-13, 01:02:00,VALID,918.026,VALID,0,VALID,100,VALID,-0.0509425,VALID,20.0805,VALID,12,VALID,0.0487351,
2009-03-13, 01:03:00,VALID,918.001,VALID,0,VALID,100,VALID,-0.0679233,VALID,20.0677,VALID,34,VALID,0.112891,
2009-03-13, 01:04:00,VALID,917.959,VALID,0,VALID,100,VALID,-0.0679233,VALID,20.0742,VALID,29,VALID,0.00142045,
2009-03-13, 01:05:00,VALID,917.947,VALID,0,VALID,100,VALID,-0.0509425,VALID,20.0772,VALID,26,VALID,0.043064,
2009-03-13, 01:06:00,VALID,917.941,VALID,0,VALID,100,VALID,-0.0679233,VALID,20.0772,VALID,32,VALID,0.0741235,
2009-03-13, 01:07:00,VALID,917.96,VALID,0,VALID,100,VALID,-0.0509425,VALID,20.1067,VALID,30,VALID,0.0535714,
2009-03-13, 01:08:00,VALID,917.977,VALID,0,VALID,100,VALID,0,VALID,20.1281,VALID,30,VALID,0,
2009-03-13, 01:09:00,VALID,917.987,VALID,0,VALID,100,VALID,0.0849042,VALID,20.1631,VALID,39,VALID,0,
2009-03-13, 01:10:00,VALID,917.997,VALID,0,VALID,100,VALID,0.0679233,VALID,20.1701,VALID,21,VALID,0,
2009-03-13, 01:11:00,VALID,917.999,VALID,0,VALID,100,VALID,0.0849042,VALID,20.1568,VALID,26,VALID,0.00266768,
2009-03-13, 01:12:00,VALID,917.989,VALID,0,VALID,100,VALID,0.0679233,VALID,20.1341,VALID,25,VALID,0,
2009-03-13, 01:13:00,VALID,917.987,VALID,0,VALID,100,VALID,0.101885,VALID,20.1568,VALID,27,VALID,0,
2009-03-13, 01:14:00,VALID,917.988,VALID,0,VALID,100,VALID,0.0339617,VALID,20.1893,VALID,19,VALID,0.0012718,
2009-03-13, 01:15:00,VALID,918.004,VALID,0,VALID,100,VALID,0.0509425,VALID,20.173,VALID,22,VALID,0,
2009-03-13, 01:16:00,VALID,918.003,VALID,0,VALID,100,VALID,0.0849042,VALID,20.1666,VALID,357,VALID,0,
2009-03-13, 01:17:00,VALID,917.995,VALID,0,VALID,100,VALID,0.0679233,VALID,20.1471,VALID,241,VALID,0,
2009-03-13, 01:18:00,VALID,917.976,VALID,0,VALID,100,VALID,0.0849042,VALID,20.1309,VALID,241,VALID,0,
2009-03-13, 01:19:00,VALID,917.959,VALID,0,VALID,100,VALID,0.0679233,VALID,20.1209,VALID,241,VALID,0,
2009-03-13, 01:20:00,VALID,917.953,VALID,0,VALID,100,VALID,0.0679233,VALID,20.1376,VALID,241,VALID,0,
2009-03-13, 01:21:00,VALID,917.923,VALID,0,VALID,100,VALID,0.0339617,VALID,20.1374,VALID,241,VALID,0,
2009-03-13, 01:22:00,VALID,917.918,VALID,0,VALID,100,VALID,0.0679233,VALID,20.1406,VALID,241,VALID,0,
2009-03-13, 01:23:00,VALID,917.894,VALID,0,VALID,100,VALID,0,VALID,20.1449,VALID,289,VALID,0,
2009-03-13, 01:24:00,VALID,917.883,VALID,0,VALID,100,VALID,-0.0509425,VALID,20.1424,VALID,20,VALID,0,
2009-03-13, 01:25:00,VALID,917.856,VALID,0,VALID,100,VALID,-0.0509425,VALID,20.1519,VALID,310,VALID,0,
2009-03-13, 01:26:00,VALID,917.844,VALID,0,VALID,100,VALID,-0.0679233,VALID,20.1583,VALID,357,VALID,0,
2009-03-13, 01:27:00,VALID,917.825,VALID,0,VALID,100,VALID,-0.0509425,VALID,20.1581,VALID,357,VALID,0,
2009-03-13, 01:28:00,VALID,917.826,VALID,0,VALID,100,VALID,-0.0169808,VALID,20.1716,VALID,357,VALID,0,
2009-03-13, 01:29:00,VALID,917.821,VALID,0,VALID,100,VALID,0,VALID,20.1546,VALID,358,VALID,0,
2009-03-13, 01:30:00,VALID,917.821,VALID,0,VALID,100,VALID,-0.0169808,VALID,20.1324,VALID,44,VALID,0,
2009-03-13, 01:31:00,VALID,917.817,VALID,0,VALID,100,VALID,-0.101885,VALID,20.1356,VALID,57,VALID,0,
2009-03-13, 01:32:00,VALID,917.792,VALID,0,VALID,100,VALID,-0.0509425,VALID,20.1324,VALID,52,VALID,0,
2009-03-13, 01:33:00,VALID,917.801,VALID,0,VALID,100,VALID,-0.0509425,VALID,20.1519,VALID,24,VALID,0,
2009-03-13, 01:34:00,VALID,917.795,VALID,0.2,VALID,100,VALID,-0.0339617,VALID,20.1681,VALID,23,VALID,0,
2009-03-13, 01:35:00,VALID,917.793,VALID,0,VALID,100,VALID,-0.0509425,VALID,20.1773,VALID,23,VALID,0,
2009-03-13, 01:36:00,VALID,917.787,VALID,0,VALID,100,VALID,-0.0169808,VALID,20.1746,VALID,23,VALID,0,
2009-03-13, 01:37:00,VALID,917.789,VALID,0,VALID,100,VALID,-0.0339617,VALID,20.1554,VALID,23,VALID,0,
2009-03-13, 01:38:00,VALID,917.775,VALID,0,VALID,100,VALID,-0.0169808,VALID,20.1506,VALID,23,VALID,0,
2009-03-13, 01:39:00,VALID,917.775,VALID,0,VALID,100,VALID,0.0169808,VALID,20.1436,VALID,109,VALID,0,
2009-03-13, 01:40:00,VALID,917.781,VALID,0,VALID,100,VALID,0.0339617,VALID,20.1309,VALID,176,VALID,0,
2009-03-13, 01:41:00,VALID,917.787,VALID,0,VALID,100,VALID,0.0169808,VALID,20.1279,VALID,82,VALID,0,
2009-03-13, 01:42:00,VALID,917.793,VALID,0,VALID,100,VALID,0.0339617,VALID,20.1241,VALID,20,VALID,0,
2009-03-13, 01:43:00,VALID,917.799,VALID,0,VALID,100,VALID,0,VALID,20.1471,VALID,321,VALID,0,
2009-03-13, 01:44:00,VALID,917.829,VALID,0,VALID,100,VALID,0,VALID,20.1376,VALID,354,VALID,0,
2009-03-13, 01:45:00,VALID,917.812,VALID,0,VALID,100,VALID,0,VALID,20.1344,VALID,15,VALID,0,
2009-03-13, 01:46:00,VALID,917.821,VALID,0,VALID,100,VALID,-0.0169808,VALID,20.1316,VALID,15,VALID,0,
2009-03-13, 01:47:00,VALID,917.778,VALID,0,VALID,100,VALID,0,VALID,20.0757,VALID,77,VALID,0.00400641,
2009-03-13, 01:48:00,VALID,917.75,VALID,0,VALID,100,VALID,0.0169808,VALID,20.0497,VALID,28,VALID,0.0356889,
2009-03-13, 01:49:00,VALID,917.77,VALID,0,VALID,100,VALID,0,VALID,20.0497,VALID,41,VALID,0.605469,
2009-03-13, 01:50:00,VALID,917.753,VALID,0,VALID,100,VALID,0.0169808,VALID,20.0497,VALID,329,VALID,1.34499,
2009-03-13, 01:51:00,VALID,917.715,VALID,0,VALID,100,VALID,0,VALID,19.917,VALID,339,VALID,1.2998,
2009-03-13, 01:52:00,VALID,917.698,VALID,0,VALID,100,VALID,0,VALID,19.8653,VALID,242,VALID,0,
2009-03-13, 01:53:00,VALID,917.699,VALID,0,VALID,100,VALID,-0.0679233,VALID,19.8595,VALID,65,VALID,0.087936,
2009-03-13, 01:54:00,VALID,917.675,VALID,0.2,VALID,100,VALID,-0.101885,VALID,19.8576,VALID,77,VALID,0.00133384,
2009-03-13, 01:55:00,VALID,917.668,VALID,0,VALID,100,VALID,-0.101885,VALID,19.8538,VALID,47,VALID,0.174479,
2009-03-13, 01:56:00,VALID,917.649,VALID,0,VALID,100,VALID,-0.101885,VALID,19.8341,VALID,12,VALID,0.0330669,
2009-03-13, 01:57:00,VALID,917.655,VALID,0,VALID,100,VALID,-0.101885,VALID,19.8241,VALID,3,VALID,0.139915,
2009-03-13, 01:58:00,VALID,917.643,VALID,0.2,VALID,100,VALID,-0.101885,VALID,19.8371,VALID,28,VALID,0.345465,
2009-03-13, 01:59:00,VALID,917.638,VALID,0,VALID,100,VALID,-0.101885,VALID,19.8306,VALID,292,VALID,0.0871394,
2009-03-13, 02:00:00,VALID,917.638,VALID,0,VALID,100,VALID,-0.118866,VALID,19.7919,VALID,24,VALID,0.168229,
2009-03-13, 02:01:00,VALID,917.642,VALID,0,VALID,100,VALID,-0.101885,VALID,19.7687,VALID,26,VALID,0.722384,
2009-03-13, 02:02:00,VALID,917.656,VALID,0,VALID,100,VALID,-0.0679233,VALID,19.7427,VALID,20,VALID,0.0466974,
2009-03-13, 02:03:00,VALID,917.636,VALID,0,VALID,100,VALID,-0.101885,VALID,19.6811,VALID,32,VALID,0.148801,
2009-03-13, 02:04:00,VALID,917.651,VALID,0,VALID,100,VALID,-0.0679233,VALID,19.6748,VALID,29,VALID,0.0980114,
2009-03-13, 02:05:00,VALID,917.66,VALID,0,VALID,100,VALID,-0.0679233,VALID,19.6813,VALID,26,VALID,0.0993823,
2009-03-13, 02:06:00,VALID,917.659,VALID,0,VALID,100,VALID,-0.0849042,VALID,19.6846,VALID,36,VALID,0,
2009-03-13, 02:07:00,VALID,917.661,VALID,0.2,VALID,100,VALID,-0.0849042,VALID,19.6584,VALID,40,VALID,0.219105,
2009-03-13, 02:08:00,VALID,917.659,VALID,0,VALID,100,VALID,-0.0339617,VALID,19.6449,VALID,31,VALID,0.748365,
2009-03-13, 02:09:00,VALID,917.675,VALID,0,VALID,100,VALID,0,VALID,19.6439,VALID,28,VALID,0.126999,
2009-03-13, 02:10:00,VALID,917.651,VALID,0,VALID,100,VALID,0,VALID,19.6279,VALID,29,VALID,0.268169,
2009-03-13, 02:11:00,VALID,917.653,VALID,0,VALID,100,VALID,-0.0169808,VALID,19.6085,VALID,23,VALID,0.207118,
2009-03-13, 02:12:00,VALID,917.66,VALID,0,VALID,100,VALID,0.0339617,VALID,19.5788,VALID,23,VALID,0.176042,
2009-03-13, 02:13:00,VALID,917.644,VALID,0,VALID,100,VALID,0.0169808,VALID,19.563,VALID,25,VALID,0.239583,
2009-03-13, 02:14:00,VALID,917.635,VALID,0,VALID,100,VALID,0.0169808,VALID,19.5498,VALID,26,VALID,0.314098,
2009-03-13, 02:15:00,VALID,917.614,VALID,0,VALID,100,VALID,0.0169808,VALID,19.5501,VALID,25,VALID,0.00895579,
2009-03-13, 02:16:00,VALID,917.597,VALID,0,VALID,100,VALID,0.0169808,VALID,19.5466,VALID,26,VALID,0.00334821,
2009-03-13, 02:17:00,VALID,917.576,VALID,0,VALID,100,VALID,0.0169808,VALID,19.5109,VALID,19,VALID,0.0012429,
2009-03-13, 02:18:00,VALID,917.546,VALID,0,VALID,100,VALID,0,VALID,19.4652,VALID,16,VALID,0.00223214,
2009-03-13, 02:19:00,VALID,917.518,VALID,0,VALID,100,VALID,0.0339617,VALID,19.4689,VALID,19,VALID,0.129654,
2009-03-13, 02:20:00,VALID,917.492,VALID,0,VALID,100,VALID,0.0169808,VALID,19.4131,VALID,11,VALID,0.0875,
2009-03-13, 02:21:00,VALID,917.464,VALID,0,VALID,100,VALID,0.0169808,VALID,19.3811,VALID,15,VALID,0.0012718,
2009-03-13, 02:22:00,VALID,917.447,VALID,0,VALID,100,VALID,0.0339617,VALID,19.3681,VALID,28,VALID,0.267857,
2009-03-13, 02:23:00,VALID,917.436,VALID,0,VALID,100,VALID,0,VALID,19.3422,VALID,24,VALID,0.141387,
2009-03-13, 02:24:00,VALID,917.406,VALID,0,VALID,100,VALID,0.0679233,VALID,19.326,VALID,25,VALID,0,
2009-03-13, 02:25:00,VALID,917.385,VALID,0,VALID,100,VALID,0.0339617,VALID,19.2903,VALID,24,VALID,0.0692224,
2009-03-13, 02:26:00,VALID,917.373,VALID,0,VALID,100,VALID,0.0339617,VALID,19.271,VALID,19,VALID,0.288318,
2009-03-13, 02:27:00,VALID,917.354,VALID,0,VALID,100,VALID,0.0509425,VALID,19.2286,VALID,24,VALID,0.356468,
2009-03-13, 02:28:00,VALID,917.348,VALID,0,VALID,100,VALID,0.0339617,VALID,19.2027,VALID,26,VALID,0.358259,
2009-03-13, 02:29:00,VALID,917.331,VALID,0,VALID,100,VALID,0,VALID,19.1994,VALID,9,VALID,0.151389,
2009-03-13, 02:30:00,VALID,917.303,VALID,0,VALID,100,VALID,0,VALID,19.164,VALID,15,VALID,0.377548,
2009-03-13, 02:31:00,VALID,917.282,VALID,0,VALID,100,VALID,0.0339617,VALID,19.0991,VALID,20,VALID,0.540838,
2009-03-13, 02:32:00,VALID,917.271,VALID,0,VALID,100,VALID,0.0169808,VALID,19.0565,VALID,24,VALID,0.520349,
2009-03-13, 02:33:00,VALID,917.26,VALID,0,VALID,100,VALID,0.0169808,VALID,19.0243,VALID,16,VALID,0.378049,
2009-03-13, 02:34:00,VALID,917.263,VALID,0,VALID,100,VALID,0.0679233,VALID,18.9881,VALID,14,VALID,0.487326,
2009-03-13, 02:35:00,VALID,917.271,VALID,0,VALID,100,VALID,0.0679233,VALID,19.0011,VALID,14,VALID,0.236421,
2009-03-13, 02:36:00,VALID,917.267,VALID,0.2,VALID,100,VALID,0.0849042,VALID,18.9716,VALID,22,VALID,0.236421,
2009-03-13, 02:37:00,VALID,917.266,VALID,0,VALID,100,VALID,0.0509425,VALID,18.9492,VALID,26,VALID,0.303757,
2009-03-13, 02:38:00,VALID,917.271,VALID,0,VALID,100,VALID,-0.0509425,VALID,18.9152,VALID,31,VALID,0.369978,
2009-03-13, 02:39:00,VALID,917.259,VALID,0,VALID,100,VALID,-0.118866,VALID,18.8837,VALID,34,VALID,0.443892,
2009-03-13, 02:40:00,VALID,917.268,VALID,0,VALID,100,VALID,-0.118866,VALID,18.8934,VALID,15,VALID,0.0291193,
2009-03-13, 02:41:00,VALID,917.282,VALID,0,VALID,100,VALID,-0.135847,VALID,18.9066,VALID,10,VALID,0.116832,
2009-03-13, 02:42:00,VALID,917.269,VALID,0,VALID,100,VALID,-0.101885,VALID,18.8971,VALID,24,VALID,0.64881,
2009-03-13, 02:43:00,VALID,917.263,VALID,0,VALID,100,VALID,-0.0849042,VALID,18.8577,VALID,11,VALID,0.512074,
2009-03-13, 02:44:00,VALID,917.277,VALID,0,VALID,100,VALID,-0.0849042,VALID,18.848,VALID,1,VALID,0.0826671,
2009-03-13, 02:45:00,VALID,917.287,VALID,0,VALID,100,VALID,-0.118866,VALID,18.8517,VALID,13,VALID,0,
2009-03-13, 02:46:00,VALID,917.284,VALID,0,VALID,100,VALID,-0.101885,VALID,18.8647,VALID,15,VALID,0,
2009-03-13, 02:47:00,VALID,917.265,VALID,0,VALID,100,VALID,-0.118866,VALID,18.858,VALID,17,VALID,0,
2009-03-13, 02:48:00,VALID,917.253,VALID,0,VALID,100,VALID,-0.101885,VALID,18.8311,VALID,355,VALID,0.0334302,
2009-03-13, 02:49:00,VALID,917.23,VALID,0,VALID,100,VALID,-0.0169808,VALID,18.8336,VALID,22,VALID,0.0025436,
2009-03-13, 02:50:00,VALID,917.22,VALID,0,VALID,100,VALID,0,VALID,18.8466,VALID,41,VALID,0,
2009-03-13, 02:51:00,VALID,917.207,VALID,0,VALID,100,VALID,0,VALID,18.8591,VALID,43,VALID,0.00114329,
2009-03-13, 02:52:00,VALID,917.214,VALID,0,VALID,100,VALID,0.0169808,VALID,18.889,VALID,43,VALID,0,
2009-03-13, 02:53:00,VALID,917.204,VALID,0,VALID,100,VALID,-0.0679233,VALID,18.8667,VALID,38,VALID,0,
2009-03-13, 02:54:00,VALID,917.204,VALID,0,VALID,100,VALID,-0.101885,VALID,18.8445,VALID,27,VALID,0,
2009-03-13, 02:55:00,VALID,917.2,VALID,0,VALID,100,VALID,-0.101885,VALID,18.8285,VALID,27,VALID,0,
2009-03-13, 02:56:00,VALID,917.197,VALID,0,VALID,100,VALID,-0.118866,VALID,18.8285,VALID,27,VALID,0,
2009-03-13, 02:57:00,VALID,917.178,VALID,0,VALID,100,VALID,-0.101885,VALID,18.8545,VALID,27,VALID,0,
2009-03-13, 02:58:00,VALID,917.181,VALID,0,VALID,100,VALID,-0.118866,VALID,18.8607,VALID,22,VALID,0,
2009-03-13, 02:59:00,VALID,917.159,VALID,0,VALID,100,VALID,-0.101885,VALID,18.8645,VALID,22,VALID,0,
2009-03-13, 03:00:00,VALID,917.131,VALID,0,VALID,100,VALID,-0.101885,VALID,18.8383,VALID,34,VALID,0,
2009-03-13, 03:01:00,VALID,917.13,VALID,0,VALID,100,VALID,-0.118866,VALID,18.8672,VALID,31,VALID,0,
2009-03-13, 03:02:00,VALID,917.114,VALID,0,VALID,100,VALID,-0.0849042,VALID,18.8804,VALID,41,VALID,0,
2009-03-13, 03:03:00,VALID,917.116,VALID,0,VALID,100,VALID,-0.101885,VALID,18.8767,VALID,40,VALID,0,
2009-03-13, 03:04:00,VALID,917.098,VALID,0,VALID,100,VALID,-0.118866,VALID,18.9059,VALID,39,VALID,0,
2009-03-13, 03:05:00,VALID,917.073,VALID,0,VALID,100,VALID,-0.101885,VALID,18.9029,VALID,24,VALID,0,
2009-03-13, 03:06:00,VALID,917.063,VALID,0,VALID,100,VALID,-0.152827,VALID,18.9423,VALID,24,VALID,0,
2009-03-13, 03:07:00,VALID,917.044,VALID,0,VALID,100,VALID,-0.101885,VALID,18.9843,VALID,24,VALID,0,
2009-03-13, 03:08:00,VALID,917.043,VALID,0,VALID,100,VALID,-0.0339617,VALID,18.993,VALID,24,VALID,0,
2009-03-13, 03:09:00,VALID,917.045,VALID,0,VALID,100,VALID,0,VALID,18.9923,VALID,24,VALID,0,
2009-03-13, 03:10:00,VALID,917.055,VALID,0,VALID,100,VALID,0,VALID,18.9953,VALID,24,VALID,0,
2009-03-13, 03:11:00,VALID,917.075,VALID,0,VALID,100,VALID,0.0169808,VALID,19.0118,VALID,24,VALID,0,
2009-03-13, 03:12:00,VALID,917.065,VALID,0,VALID,100,VALID,0.0339617,VALID,19.0215,VALID,24,VALID,0,
2009-03-13, 03:13:00,VALID,917.066,VALID,0,VALID,100,VALID,0.0169808,VALID,19.018,VALID,24,VALID,0,
2009-03-13, 03:14:00,VALID,917.072,VALID,0,VALID,100,VALID,0.0169808,VALID,19.0507,VALID,24,VALID,0,
2009-03-13, 03:15:00,VALID,917.075,VALID,0,VALID,100,VALID,0.0169808,VALID,19.0829,VALID,24,VALID,0,
2009-03-13, 03:16:00,VALID,917.068,VALID,0,VALID,100,VALID,0,VALID,19.1024,VALID,24,VALID,0,
2009-03-13, 03:17:00,VALID,917.05,VALID,0,VALID,100,VALID,0,VALID,19.1086,VALID,24,VALID,0,
2009-03-13, 03:18:00,VALID,917.05,VALID,0,VALID,100,VALID,0.0169808,VALID,19.1121,VALID,24,VALID,0,
2009-03-13, 03:19:00,VALID,917.049,VALID,0,VALID,100,VALID,0.0169808,VALID,19.1478,VALID,24,VALID,0,
2009-03-13, 03:20:00,VALID,917.045,VALID,0,VALID,100,VALID,0,VALID,19.1835,VALID,17,VALID,0,
2009-03-13, 03:21:00,VALID,917.047,VALID,0,VALID,100,VALID,0.0169808,VALID,19.1839,VALID,5,VALID,0,
2009-03-13, 03:22:00,VALID,917.038,VALID,0,VALID,100,VALID,0,VALID,19.1869,VALID,350,VALID,0,
2009-03-13, 03:23:00,VALID,917.045,VALID,0,VALID,100,VALID,-0.0849042,VALID,19.2029,VALID,350,VALID,0,
2009-03-13, 03:24:00,VALID,917.036,VALID,0,VALID,100,VALID,-0.0509425,VALID,19.2199,VALID,350,VALID,0,
2009-03-13, 03:25:00,VALID,917.046,VALID,0,VALID,100,VALID,-0.0339617,VALID,19.2326,VALID,350,VALID,0,
2009-03-13, 03:26:00,VALID,917.055,VALID,0,VALID,100,VALID,-0.0509425,VALID,19.2294,VALID,357,VALID,0,
2009-03-13, 03:27:00,VALID,917.06,VALID,0,VALID,100,VALID,-0.0679233,VALID,19.2328,VALID,358,VALID,0,
2009-03-13, 03:28:00,VALID,917.076,VALID,0,VALID,100,VALID,-0.0509425,VALID,19.2291,VALID,359,VALID,0,
2009-03-13, 03:29:00,VALID,917.082,VALID,0,VALID,100,VALID,-0.0509425,VALID,19.2191,VALID,358,VALID,0,
2009-03-13, 03:30:00,VALID,917.064,VALID,0,VALID,100,VALID,-0.0679233,VALID,19.2196,VALID,1,VALID,0,
2009-03-13, 03:31:00,VALID,917.074,VALID,0,VALID,100,VALID,-0.0169808,VALID,19.2097,VALID,4,VALID,0,
2009-03-13, 03:32:00,VALID,917.06,VALID,0,VALID,100,VALID,0,VALID,19.2191,VALID,4,VALID,0,
2009-03-13, 03:33:00,VALID,917.038,VALID,0,VALID,100,VALID,-0.0339617,VALID,19.2067,VALID,4,VALID,0,
2009-03-13, 03:34:00,VALID,917.045,VALID,0,VALID,100,VALID,-0.0509425,VALID,19.2011,VALID,4,VALID,0,
2009-03-13, 03:35:00,VALID,917.025,VALID,0,VALID,100,VALID,-0.0679233,VALID,19.152,VALID,4,VALID,0,
2009-03-13, 03:36:00,VALID,917.031,VALID,0,VALID,100,VALID,-0.101885,VALID,19.1193,VALID,4,VALID,0,
2009-03-13, 03:37:00,VALID,917.02,VALID,0,VALID,100,VALID,-0.0679233,VALID,19.0766,VALID,4,VALID,0,
2009-03-13, 03:38:00,VALID,917.031,VALID,0,VALID,100,VALID,-0.0849042,VALID,19.0836,VALID,4,VALID,0,
2009-03-13, 03:39:00,VALID,917.029,VALID,0,VALID,100,VALID,-0.0849042,VALID,19.0776,VALID,10,VALID,0,
2009-03-13, 03:40:00,VALID,917.035,VALID,0,VALID,100,VALID,-0.0509425,VALID,19.0512,VALID,28,VALID,0,
2009-03-13, 03:41:00,VALID,917.048,VALID,0,VALID,100,VALID,-0.0509425,VALID,19.0412,VALID,29,VALID,0,
2009-03-13, 03:42:00,VALID,917.055,VALID,0,VALID,100,VALID,-0.0509425,VALID,19.0442,VALID,29,VALID,0,
2009-03-13, 03:43:00,VALID,917.084,VALID,0,VALID,100,VALID,-0.0679233,VALID,19.0577,VALID,29,VALID,0,
2009-03-13, 03:44:00,VALID,917.076,VALID,0,VALID,100,VALID,-0.101885,VALID,19.0706,VALID,29,VALID,0,
2009-03-13, 03:45:00,VALID,917.06,VALID,0,VALID,100,VALID,-0.0849042,VALID,19.0841,VALID,29,VALID,0,
2009-03-13, 03:46:00,VALID,917.073,VALID,0,VALID,100,VALID,-0.0679233,VALID,19.0801,VALID,29,VALID,0,
2009-03-13, 03:47:00,VALID,917.051,VALID,0,VALID,100,VALID,-0.0849042,VALID,19.0966,VALID,29,VALID,0,
2009-03-13, 03:48:00,VALID,917.044,VALID,0,VALID,100,VALID,-0.0339617,VALID,19.0894,VALID,29,VALID,0,